Погода в Ахангаране

Узбекистан     40°54′37″N   69°38′37″E
темп.,
°C
ветер,
м/с
пор.,
м/с
влажн.,
%
обл.,
%
осадки,
мм/ч
давл.,
гПа
погр.,
м
27 февраля, сб
сб2723:00−6в2252100 0.0 103135
02:00−6ссв1152100 0.0 102921
05:00−6ссз1156100 0.0 102925
08:00−5в0160100 0.1 102925
11:00−2ююв2251100 0.2 1029498
14:00−1в4469100 0.1 1029501
17:00−1в3467100 0.1 103099
20:00−3всв556155 0.0 103265
28 февраля, вс
вс2823:00−3в565728 0.0 103185
02:00−3в55580 0.0 103075
05:00−3в44560 0.0 102852
08:00−2в45570 0.0 102781
11:00+4в35700 0.0 1024318
14:00+7вюв24540 0.0 1021484
17:00+5вюв11650 0.0 102123
20:00+2в44450 0.0 102231
1 марта, пн
пн123:00+2в334325 0.0 102228
02:00+2в2241100 0.0 102122
05:00+3в2337100 0.0 102122
08:00+5в3335100 0.0 102127
11:00+11в114284 0.0 1020171
14:00+12зсз11400 0.0 1019273
17:00+10св01570 0.0 101922
20:00+7всв44320 0.0 102131
2 марта, вт
вт223:00+7всв45320 0.0 102242
02:00+7всв443364 0.0 102243
05:00+8всв343382 0.0 102130
08:00+8всв3336100 0.0 102230
11:00+12ссв1131100 0.0 1022340
14:00+13з1128100 0.0 1020783
17:00+10зсз3447100 0.0 1020193
20:00+8в3353100 0.0 102240
3 марта, ср
ср323:00+7св3356100 0.0 102233
02:00+7ссв1257100 0.0 102125
05:00+4св2385100 1.3 1021241
08:00+3вюв3395100 4.4 1021174
11:00+4вюв2393100 8.4 1020202
14:00+6в2282100 0.4 1019374
17:00+5ссз2394100 2.3 1019232
20:00+5в3491100 1.4 1020182